EHEH

Eindhoven Airport

Airport
ICAO code
EHEH
IATA Code
EIN
Summary
ICAO Region
EUR
ICAO Territory
Location

Eindhoven, Noord-Brabant

Serving
Eindhoven
Elevation
74 ft
Coordinates
51° 27' 1" N , 5° 22' 28" E
KCC
Metar
EHEH 171425Z AUTO 28008KT 220V340 9999 FEW040 SCT065 21/11 Q1012 BLU NOSIG

International airport serving Eindhoven, The Netherlands.

Climatology

Temperate Marine climate/Oceanic climate (Köppen climate classification Cfb). Moderately cool summer and comparatively warm winter with a temperature range of only 14°C. Prevailing south-westerly winds from the Atlantic Ocean.

Runways

Designator Length Width Surface Rops
4/22 3000 45 ASP Yes/Yes

SKYbrary Partners:

Safety knowledge contributed by: